RYR2637 EPKK-LGAV

Flight info

Callsign RYR2637
Flight time 1h 56m
Altitude 37000
Route REGTO T195 RAZEC DCT KEKED DCT LOMOS DCT NIKTI DCT STINO UT162 NEVRA
Aircraft B738/M-SDE2E3FGHIRWXY/LB1

Departure

Time 2026-05-07 13:05
Airport Kraków John Paul II International Airport (EPKK)

Arrival

Time 2026-05-07 15:01
Airport Athens Eleftherios Venizelos International Airport (LGAV)
Time Latitude Longitude Altitude Speed Heading
2026-05-07 12:45 50.07342 19.80205 799 ft 0 kts 168°
2026-05-07 12:59 50.07347 19.80204 799 ft 4 kts 168°
2026-05-07 12:59 50.07374 19.80195 799 ft 4 kts 168°
2026-05-07 12:59 50.07396 19.80188 799 ft 3 kts 167°
2026-05-07 12:59 50.07415 19.80171 799 ft 4 kts 105°
2026-05-07 13:00 50.07414 19.80135 799 ft 4 kts 77°
2026-05-07 13:00 50.07412 19.80122 799 ft 0 kts 77°
2026-05-07 13:02 50.07413 19.80123 799 ft 1 kts 77°
2026-05-07 13:02 50.07417 19.80151 799 ft 5 kts 77°
2026-05-07 13:02 50.07430 19.80244 799 ft 14 kts 78°
2026-05-07 13:03 50.07485 19.80383 799 ft 17 kts 20°
2026-05-07 13:03 50.07596 19.80419 799 ft 16 kts 352°
2026-05-07 13:03 50.07704 19.80383 799 ft 16 kts 349°
2026-05-07 13:03 50.07808 19.80349 799 ft 15 kts 348°
2026-05-07 13:04 50.07920 19.80310 799 ft 18 kts 347°
2026-05-07 13:04 50.08007 19.80276 798 ft 9 kts 329°
2026-05-07 13:04 50.08011 19.80194 799 ft 11 kts 257°
2026-05-07 13:04 50.07957 19.79806 799 ft 71 kts 257°
2026-05-07 13:05 50.07808 19.78725 801 ft 132 kts 257°
2026-05-07 13:05 50.07590 19.77098 1006 ft 163 kts 256°
2026-05-07 13:05 50.07339 19.75352 1747 ft 166 kts 257°
2026-05-07 13:05 50.07069 19.73574 2369 ft 176 kts 257°
2026-05-07 13:06 50.06776 19.71571 2582 ft 202 kts 258°
2026-05-07 13:06 50.06453 19.69354 2866 ft 220 kts 257°
2026-05-07 13:06 50.05985 19.67048 3273 ft 233 kts 241°
2026-05-07 13:06 50.04848 19.65327 4036 ft 234 kts 211°
2026-05-07 13:07 50.03218 19.64639 4486 ft 258 kts 181°
2026-05-07 13:07 50.01425 19.65167 5209 ft 263 kts 169°
2026-05-07 13:07 49.99638 19.65841 5983 ft 267 kts 171°
2026-05-07 13:07 49.97805 19.66468 6705 ft 271 kts 171°
2026-05-07 13:08 49.95962 19.67087 7527 ft 270 kts 171°
2026-05-07 13:08 49.94120 19.67707 8291 ft 272 kts 171°
2026-05-07 13:08 49.92250 19.68336 8991 ft 277 kts 171°
2026-05-07 13:08 49.90359 19.68972 9738 ft 279 kts 171°
2026-05-07 13:09 49.88466 19.69748 10326 ft 290 kts 159°
2026-05-07 13:09 49.86807 19.71753 10487 ft 320 kts 133°
2026-05-07 13:09 49.85407 19.74577 10662 ft 341 kts 130°
2026-05-07 13:09 49.83959 19.77620 10826 ft 361 kts 129°
2026-05-07 13:10 49.82442 19.80823 11138 ft 374 kts 129°
2026-05-07 13:10 49.80890 19.84086 11696 ft 378 kts 129°
2026-05-07 13:10 49.79324 19.87353 12393 ft 379 kts 129°
2026-05-07 13:10 49.77742 19.90630 13027 ft 382 kts 130°
2026-05-07 13:11 49.76114 19.93985 13639 ft 387 kts 130°
2026-05-07 13:11 49.74487 19.97329 14229 ft 391 kts 130°
2026-05-07 13:11 49.72844 20.00703 14837 ft 394 kts 130°
2026-05-07 13:11 49.71190 20.04090 15476 ft 397 kts 130°
2026-05-07 13:12 49.69523 20.07501 16099 ft 400 kts 130°
2026-05-07 13:12 49.67837 20.10946 16675 ft 404 kts 130°
2026-05-07 13:12 49.66135 20.14421 17245 ft 408 kts 130°
2026-05-07 13:12 49.64418 20.17924 17831 ft 411 kts 131°
2026-05-07 13:13 49.62684 20.21457 18371 ft 415 kts 131°
2026-05-07 13:13 49.60961 20.24965 18872 ft 418 kts 131°
2026-05-07 13:13 49.59202 20.28543 19408 ft 420 kts 131°
2026-05-07 13:13 49.57433 20.32136 19922 ft 422 kts 131°
2026-05-07 13:14 49.55653 20.35749 20409 ft 425 kts 131°
2026-05-07 13:14 49.53860 20.39380 20893 ft 427 kts 131°
2026-05-07 13:14 49.52056 20.43031 21350 ft 430 kts 131°
2026-05-07 13:14 49.50235 20.46710 21846 ft 433 kts 131°
2026-05-07 13:15 49.48408 20.50395 22284 ft 435 kts 131°
2026-05-07 13:15 49.46562 20.54114 22668 ft 439 kts 131°
2026-05-07 13:15 49.44708 20.57846 23157 ft 440 kts 131°
2026-05-07 13:15 49.42849 20.61586 23627 ft 441 kts 131°
2026-05-07 13:16 49.40983 20.65328 23999 ft 443 kts 131°
2026-05-07 13:16 49.39012 20.68957 24315 ft 442 kts 137°
2026-05-07 13:16 49.36835 20.72301 24620 ft 444 kts 140°
2026-05-07 13:16 49.34572 20.75546 24934 ft 446 kts 141°
2026-05-07 13:17 49.32294 20.78780 25255 ft 448 kts 141°
2026-05-07 13:17 49.30016 20.82059 25593 ft 450 kts 141°
2026-05-07 13:17 49.27744 20.85384 25901 ft 453 kts 140°
2026-05-07 13:17 49.25475 20.88739 26143 ft 456 kts 140°
2026-05-07 13:18 49.23187 20.92139 26387 ft 460 kts 140°
2026-05-07 13:18 49.20888 20.95559 26702 ft 461 kts 140°
2026-05-07 13:18 49.18581 20.98984 27026 ft 463 kts 140°
2026-05-07 13:18 49.16266 21.02409 27313 ft 465 kts 140°
2026-05-07 13:19 49.13852 21.05702 27560 ft 464 kts 147°
2026-05-07 13:19 49.11135 21.08302 27848 ft 460 kts 157°
2026-05-07 13:19 49.08221 21.10219 28259 ft 454 kts 165°
2026-05-07 13:19 49.05191 21.11420 28714 ft 448 kts 171°
2026-05-07 13:20 49.02148 21.12406 29156 ft 446 kts 172°
2026-05-07 13:20 48.99113 21.13385 29506 ft 446 kts 172°
2026-05-07 13:20 48.96073 21.14378 29786 ft 448 kts 171°
2026-05-07 13:20 48.93024 21.15390 30122 ft 448 kts 171°
2026-05-07 13:21 48.89988 21.16411 30512 ft 446 kts 171°
2026-05-07 13:21 48.86971 21.17432 30920 ft 443 kts 171°
2026-05-07 13:21 48.83965 21.18451 31245 ft 442 kts 172°
2026-05-07 13:21 48.80999 21.19455 31521 ft 442 kts 172°
2026-05-07 13:22 48.77996 21.20470 31820 ft 442 kts 172°
2026-05-07 13:22 48.75001 21.21481 32166 ft 440 kts 172°
2026-05-07 13:22 48.72014 21.22488 32491 ft 439 kts 172°
2026-05-07 13:22 48.69033 21.23492 32793 ft 439 kts 172°
2026-05-07 13:23 48.66054 21.24493 33095 ft 438 kts 172°
2026-05-07 13:23 48.63086 21.25489 33443 ft 436 kts 172°
2026-05-07 13:23 48.60131 21.26480 33797 ft 434 kts 172°
2026-05-07 13:23 48.57184 21.27467 34035 ft 434 kts 172°
2026-05-07 13:24 48.54190 21.28467 34167 ft 436 kts 172°
2026-05-07 13:24 48.51273 21.29503 34341 ft 438 kts 169°
2026-05-07 13:24 48.48342 21.30760 34622 ft 437 kts 168°
2026-05-07 13:24 48.45436 21.32091 34905 ft 436 kts 167°
2026-05-07 13:25 48.42536 21.33447 35138 ft 436 kts 167°
2026-05-07 13:25 48.39640 21.34803 35369 ft 435 kts 167°
2026-05-07 13:25 48.36754 21.36145 35649 ft 433 kts 167°
2026-05-07 13:25 48.33879 21.37470 35893 ft 432 kts 167°
2026-05-07 13:26 48.31004 21.38784 36084 ft 432 kts 167°
2026-05-07 13:26 48.28126 21.40092 36255 ft 432 kts 167°
2026-05-07 13:26 48.25243 21.41397 36435 ft 433 kts 167°
2026-05-07 13:26 48.22365 21.42697 36668 ft 432 kts 167°
2026-05-07 13:27 48.19491 21.43993 36900 ft 431 kts 167°
2026-05-07 13:27 48.16617 21.45288 36957 ft 433 kts 167°
2026-05-07 13:27 48.10844 21.47884 36966 ft 432 kts 167°
2026-05-07 13:28 48.05116 21.50457 36971 ft 428 kts 167°
2026-05-07 13:28 47.99426 21.53007 36979 ft 425 kts 167°
2026-05-07 13:29 47.93768 21.55534 36975 ft 424 kts 167°
2026-05-07 13:29 47.88122 21.58051 37014 ft 423 kts 167°
2026-05-07 13:30 47.82470 21.60563 36994 ft 425 kts 168°
2026-05-07 13:30 47.76792 21.63081 36997 ft 427 kts 167°
2026-05-07 13:31 47.71073 21.65612 37005 ft 430 kts 167°
2026-05-07 13:31 47.65318 21.68154 37022 ft 433 kts 167°
2026-05-07 13:32 47.59573 21.70686 37020 ft 435 kts 167°
2026-05-07 13:32 47.53770 21.73239 37028 ft 436 kts 167°
2026-05-07 13:33 47.47958 21.75790 37017 ft 435 kts 167°
2026-05-07 13:33 47.42157 21.78330 37019 ft 435 kts 167°
2026-05-07 13:34 47.34440 21.81699 37018 ft 434 kts 167°
2026-05-07 13:35 47.28646 21.84221 37017 ft 434 kts 167°
2026-05-07 13:35 47.22852 21.86738 37016 ft 434 kts 167°
2026-05-07 13:36 47.17061 21.89247 37015 ft 434 kts 167°
2026-05-07 13:36 47.11274 21.91749 36999 ft 434 kts 167°
2026-05-07 13:37 47.05484 21.94247 37044 ft 434 kts 167°
2026-05-07 13:37 46.99689 21.96741 37052 ft 434 kts 167°
2026-05-07 13:38 46.93879 21.99236 37053 ft 436 kts 167°
2026-05-07 13:38 46.88059 22.01730 37035 ft 436 kts 167°
2026-05-07 13:39 46.82231 22.04222 37047 ft 436 kts 167°
2026-05-07 13:39 46.76396 22.06711 37033 ft 437 kts 167°
2026-05-07 13:40 46.70556 22.09196 37028 ft 437 kts 167°
2026-05-07 13:40 46.64716 22.11676 37028 ft 437 kts 167°
2026-05-07 13:41 46.58874 22.14151 37032 ft 437 kts 167°
2026-05-07 13:41 46.53024 22.16624 37025 ft 438 kts 167°
2026-05-07 13:42 46.47167 22.19095 37030 ft 439 kts 167°
2026-05-07 13:42 46.41294 22.21566 37017 ft 439 kts 167°
2026-05-07 13:43 46.35470 22.24012 37020 ft 438 kts 167°
2026-05-07 13:43 46.29613 22.26466 37030 ft 438 kts 167°
2026-05-07 13:44 46.23749 22.28917 37023 ft 440 kts 167°
2026-05-07 13:44 46.17865 22.31371 37019 ft 440 kts 168°
2026-05-07 13:45 46.11998 22.33814 37023 ft 438 kts 168°
2026-05-07 13:45 46.06153 22.36241 37021 ft 437 kts 168°
2026-05-07 13:46 46.00322 22.38657 37015 ft 435 kts 168°
2026-05-07 13:46 45.94510 22.41060 37025 ft 434 kts 168°
2026-05-07 13:47 45.88698 22.43457 37025 ft 435 kts 168°
2026-05-07 13:47 45.82882 22.45851 37029 ft 435 kts 168°
2026-05-07 13:48 45.77056 22.48243 37031 ft 436 kts 168°
2026-05-07 13:48 45.71214 22.50637 37012 ft 437 kts 168°
2026-05-07 13:49 45.65406 22.53013 37025 ft 438 kts 168°
2026-05-07 13:49 45.59542 22.55405 37038 ft 439 kts 168°
2026-05-07 13:50 45.53661 22.57800 37041 ft 440 kts 168°
2026-05-07 13:50 45.47756 22.60199 37041 ft 442 kts 168°
2026-05-07 13:51 45.41842 22.62597 37048 ft 442 kts 168°
2026-05-07 13:51 45.35923 22.64992 37031 ft 442 kts 168°
2026-05-07 13:52 45.30018 22.67375 37054 ft 441 kts 168°
2026-05-07 13:52 45.24126 22.69749 37067 ft 440 kts 168°
2026-05-07 13:53 45.18238 22.72115 37049 ft 440 kts 168°
2026-05-07 13:53 45.12349 22.74476 37061 ft 440 kts 168°
2026-05-07 13:54 45.06468 22.76830 37070 ft 439 kts 168°
2026-05-07 13:54 45.00588 22.79178 37060 ft 439 kts 168°
2026-05-07 13:55 44.94759 22.81501 37061 ft 438 kts 168°
2026-05-07 13:55 44.88894 22.83833 37056 ft 438 kts 168°
2026-05-07 13:56 44.83027 22.86161 37057 ft 438 kts 168°
2026-05-07 13:56 44.77155 22.88486 37062 ft 438 kts 168°
2026-05-07 13:57 44.71279 22.90807 37061 ft 439 kts 168°
2026-05-07 13:57 44.65398 22.93126 37057 ft 439 kts 168°
2026-05-07 13:58 44.59512 22.95442 37054 ft 439 kts 168°
2026-05-07 13:58 44.53623 22.97754 37056 ft 440 kts 168°
2026-05-07 13:59 44.47729 23.00064 37057 ft 440 kts 168°
2026-05-07 13:59 44.41834 23.02369 37053 ft 440 kts 168°
2026-05-07 14:00 44.35978 23.04654 37035 ft 440 kts 168°
2026-05-07 14:00 44.30089 23.06947 37051 ft 439 kts 168°
2026-05-07 14:01 44.24203 23.09234 37057 ft 439 kts 168°
2026-05-07 14:01 44.18312 23.11518 37051 ft 440 kts 168°
2026-05-07 14:02 44.12417 23.13799 37050 ft 440 kts 168°
2026-05-07 14:02 44.06519 23.16077 37054 ft 440 kts 168°
2026-05-07 14:03 44.00619 23.18350 37047 ft 440 kts 168°
2026-05-07 14:03 43.94717 23.20620 37048 ft 441 kts 168°
2026-05-07 14:04 43.88802 23.22891 37058 ft 441 kts 168°
2026-05-07 14:04 43.82880 23.25160 37051 ft 442 kts 168°
2026-05-07 14:05 43.76957 23.27482 37055 ft 443 kts 168°
2026-05-07 14:05 43.71063 23.29822 37038 ft 444 kts 167°
2026-05-07 14:06 43.65126 23.32171 37050 ft 444 kts 168°
2026-05-07 14:06 43.59179 23.34513 37061 ft 445 kts 168°
2026-05-07 14:07 43.53226 23.36850 37062 ft 445 kts 168°
2026-05-07 14:07 43.47264 23.39186 37067 ft 445 kts 168°
2026-05-07 14:08 43.41301 23.41517 37043 ft 446 kts 168°
2026-05-07 14:08 43.35332 23.43846 37070 ft 446 kts 168°
2026-05-07 14:09 43.29368 23.46168 37072 ft 446 kts 168°
2026-05-07 14:09 43.23402 23.48487 37072 ft 445 kts 168°
2026-05-07 14:10 43.17442 23.50798 37066 ft 445 kts 168°
2026-05-07 14:10 43.11485 23.53103 37078 ft 445 kts 168°
2026-05-07 14:11 43.05535 23.55401 37086 ft 444 kts 168°
2026-05-07 14:11 42.99584 23.57695 37089 ft 444 kts 168°
2026-05-07 14:12 42.93630 23.59985 37098 ft 445 kts 168°
2026-05-07 14:12 42.87668 23.62274 37100 ft 445 kts 168°
2026-05-07 14:13 42.81697 23.64561 37087 ft 446 kts 168°
2026-05-07 14:13 42.75728 23.66844 37091 ft 446 kts 168°
2026-05-07 14:14 42.69741 23.69127 37092 ft 447 kts 168°
2026-05-07 14:14 42.63752 23.71408 37095 ft 447 kts 168°
2026-05-07 14:15 42.57752 23.73689 37091 ft 448 kts 168°
2026-05-07 14:15 42.51787 23.75951 37112 ft 448 kts 168°
2026-05-07 14:16 42.45771 23.78228 37097 ft 449 kts 168°
2026-05-07 14:16 42.39755 23.80502 37109 ft 449 kts 168°
2026-05-07 14:17 42.33725 23.82775 37103 ft 450 kts 168°
2026-05-07 14:17 42.27690 23.85046 37103 ft 450 kts 168°
2026-05-07 14:18 42.21655 23.87312 37100 ft 450 kts 168°
2026-05-07 14:18 42.15624 23.89573 37113 ft 450 kts 168°
2026-05-07 14:19 42.09584 23.91832 37115 ft 450 kts 168°
2026-05-07 14:19 42.03547 23.94086 37098 ft 450 kts 168°
2026-05-07 14:20 41.97506 23.96337 37112 ft 450 kts 168°
2026-05-07 14:20 41.91510 23.98566 37129 ft 451 kts 168°
2026-05-07 14:21 41.85450 24.00815 37115 ft 452 kts 168°
2026-05-07 14:21 41.79399 24.03057 37118 ft 452 kts 168°
2026-05-07 14:22 41.73343 24.05296 37131 ft 451 kts 168°
2026-05-07 14:22 41.67292 24.07529 37130 ft 452 kts 168°
2026-05-07 14:23 41.61211 24.09769 37133 ft 454 kts 168°
2026-05-07 14:23 41.55095 24.12020 37124 ft 457 kts 167°
2026-05-07 14:24 41.49078 24.14898 37140 ft 460 kts 162°
2026-05-07 14:24 41.43120 24.18069 37131 ft 461 kts 162°
2026-05-07 14:25 41.37157 24.21227 37120 ft 461 kts 162°
2026-05-07 14:25 41.32189 24.23818 37126 ft 461 kts 162°
2026-05-07 14:26 41.26204 24.26910 37127 ft 461 kts 162°
2026-05-07 14:26 41.20224 24.29988 37133 ft 461 kts 162°
2026-05-07 14:27 41.14220 24.33073 37117 ft 463 kts 162°
2026-05-07 14:27 41.08205 24.36158 37130 ft 464 kts 162°
2026-05-07 14:28 41.02177 24.39245 37097 ft 465 kts 162°
2026-05-07 14:28 40.96134 24.42334 37104 ft 466 kts 162°
2026-05-07 14:29 40.90078 24.45424 37103 ft 467 kts 162°
2026-05-07 14:29 40.84011 24.48512 37109 ft 468 kts 162°
2026-05-07 14:30 40.77929 24.51603 37120 ft 469 kts 162°
2026-05-07 14:30 40.71833 24.54694 37120 ft 470 kts 162°
2026-05-07 14:31 40.65725 24.57785 37131 ft 471 kts 163°
2026-05-07 14:31 40.59594 24.60882 37121 ft 472 kts 163°
2026-05-07 14:32 40.53457 24.63976 37116 ft 473 kts 163°
2026-05-07 14:32 40.47317 24.67066 37122 ft 472 kts 163°
2026-05-07 14:33 40.41175 24.70150 37117 ft 472 kts 163°
2026-05-07 14:33 40.35039 24.73225 37122 ft 472 kts 163°
2026-05-07 14:34 40.28951 24.76270 37124 ft 471 kts 163°
2026-05-07 14:34 40.22792 24.79345 37112 ft 470 kts 163°
2026-05-07 14:35 40.16680 24.82391 37122 ft 470 kts 163°
2026-05-07 14:35 40.10614 24.85407 37122 ft 469 kts 163°
2026-05-07 14:36 40.04513 24.88435 37120 ft 469 kts 163°
2026-05-07 14:36 39.98407 24.91460 37113 ft 469 kts 163°
2026-05-07 14:37 39.92304 24.94478 37116 ft 469 kts 163°
2026-05-07 14:37 39.83137 24.99000 37117 ft 470 kts 163°
2026-05-07 14:38 39.77019 25.02011 37106 ft 470 kts 163°
2026-05-07 14:38 39.70893 25.05021 37121 ft 471 kts 163°
2026-05-07 14:39 39.64747 25.08035 37125 ft 473 kts 163°
2026-05-07 14:39 39.61624 25.09307 37114 ft 468 kts 174°
2026-05-07 14:39 39.58420 25.09710 37124 ft 460 kts 185°
2026-05-07 14:40 39.55255 25.09343 37126 ft 454 kts 196°
2026-05-07 14:40 39.52237 25.08268 37144 ft 449 kts 202°
2026-05-07 14:40 39.46265 25.05805 37128 ft 451 kts 202°
2026-05-07 14:41 39.43266 25.04588 36909 ft 456 kts 202°
2026-05-07 14:41 39.40198 25.03360 36114 ft 462 kts 201°
2026-05-07 14:41 39.37135 25.02157 35509 ft 458 kts 200°
2026-05-07 14:41 39.34087 25.00967 34890 ft 457 kts 200°
2026-05-07 14:42 39.31082 24.99796 34226 ft 457 kts 199°
2026-05-07 14:42 39.28040 24.98609 33462 ft 457 kts 199°
2026-05-07 14:42 39.25000 24.97423 32709 ft 457 kts 199°
2026-05-07 14:42 39.21958 24.96236 31980 ft 456 kts 199°
2026-05-07 14:43 39.18917 24.95053 31206 ft 457 kts 199°
2026-05-07 14:43 39.15872 24.93872 30429 ft 458 kts 199°
2026-05-07 14:43 39.12813 24.92689 29534 ft 459 kts 199°
2026-05-07 14:43 39.09747 24.91503 28609 ft 460 kts 199°
2026-05-07 14:44 39.06698 24.90323 27999 ft 454 kts 199°
2026-05-07 14:44 39.03685 24.89155 27350 ft 450 kts 199°
2026-05-07 14:44 39.00709 24.88000 26733 ft 444 kts 200°
2026-05-07 14:44 38.97763 24.86858 26149 ft 442 kts 200°
2026-05-07 14:45 38.94801 24.85708 25565 ft 446 kts 200°
2026-05-07 14:45 38.91841 24.84561 24963 ft 442 kts 200°
2026-05-07 14:45 38.88912 24.83429 24363 ft 438 kts 200°
2026-05-07 14:45 38.85996 24.82303 23658 ft 437 kts 200°
2026-05-07 14:46 38.83097 24.81186 22949 ft 433 kts 200°
2026-05-07 14:46 38.80224 24.80085 22335 ft 428 kts 200°
2026-05-07 14:46 38.77389 24.79002 21734 ft 423 kts 200°
2026-05-07 14:46 38.74587 24.77933 21148 ft 418 kts 200°
2026-05-07 14:47 38.71818 24.76875 20578 ft 413 kts 200°
2026-05-07 14:47 38.69073 24.75827 20011 ft 409 kts 200°
2026-05-07 14:47 38.66359 24.74791 19451 ft 405 kts 200°
2026-05-07 14:47 38.63671 24.73765 18899 ft 402 kts 200°
2026-05-07 14:48 38.61004 24.72748 18324 ft 398 kts 200°
2026-05-07 14:48 38.58361 24.71740 17700 ft 395 kts 200°
2026-05-07 14:48 38.55736 24.70741 17111 ft 392 kts 200°
2026-05-07 14:48 38.53138 24.69752 16545 ft 388 kts 200°
2026-05-07 14:49 38.50559 24.68771 15995 ft 386 kts 200°
2026-05-07 14:49 38.47986 24.67793 15453 ft 386 kts 200°
2026-05-07 14:49 38.45447 24.66708 14898 ft 383 kts 208°
2026-05-07 14:49 38.43103 24.65126 14355 ft 380 kts 213°
2026-05-07 14:50 38.40841 24.63413 13726 ft 374 kts 214°
2026-05-07 14:50 38.38635 24.61693 12747 ft 371 kts 214°
2026-05-07 14:50 38.36449 24.59950 11768 ft 369 kts 214°
2026-05-07 14:50 38.34296 24.58196 10897 ft 365 kts 214°
2026-05-07 14:51 38.32193 24.56453 10409 ft 352 kts 215°
2026-05-07 14:51 38.30247 24.54811 10269 ft 329 kts 218°
2026-05-07 14:51 38.28723 24.52805 10123 ft 306 kts 239°
2026-05-07 14:51 38.27716 24.50519 10000 ft 288 kts 244°
2026-05-07 14:52 38.26826 24.48273 9560 ft 283 kts 245°
2026-05-07 14:52 38.25959 24.46034 9049 ft 280 kts 245°
2026-05-07 14:52 38.25107 24.43825 8589 ft 277 kts 245°
2026-05-07 14:52 38.24268 24.41643 8159 ft 272 kts 245°
2026-05-07 14:53 38.23445 24.39478 7644 ft 272 kts 245°
2026-05-07 14:53 38.22633 24.37301 7155 ft 272 kts 245°
2026-05-07 14:53 38.21825 24.35131 6645 ft 272 kts 245°
2026-05-07 14:53 38.21034 24.32995 6380 ft 262 kts 245°
2026-05-07 14:54 38.20270 24.30925 6040 ft 256 kts 245°
2026-05-07 14:54 38.19518 24.28864 5616 ft 258 kts 245°
2026-05-07 14:54 38.18778 24.26820 5483 ft 251 kts 245°
2026-05-07 14:54 38.18026 24.24827 5174 ft 251 kts 239°
2026-05-07 14:55 38.17055 24.22979 4916 ft 250 kts 233°
2026-05-07 14:55 38.16019 24.21227 4643 ft 250 kts 232°
2026-05-07 14:55 38.14968 24.19466 4383 ft 248 kts 232°
2026-05-07 14:55 38.13949 24.17745 4322 ft 238 kts 232°
2026-05-07 14:56 38.12974 24.16088 4230 ft 231 kts 232°
2026-05-07 14:56 38.12035 24.14487 4170 ft 222 kts 232°
2026-05-07 14:56 38.11143 24.12965 4134 ft 208 kts 232°
2026-05-07 14:56 38.10279 24.11551 3943 ft 200 kts 225°
2026-05-07 14:57 38.09239 24.10420 3707 ft 194 kts 218°
2026-05-07 14:57 38.08170 24.09402 3446 ft 190 kts 216°
2026-05-07 14:57 38.07124 24.08411 3198 ft 186 kts 217°
2026-05-07 14:57 38.06099 24.07436 2950 ft 182 kts 217°
2026-05-07 14:58 38.05099 24.06483 2724 ft 178 kts 217°
2026-05-07 14:58 38.04118 24.05546 2492 ft 175 kts 216°
2026-05-07 14:58 38.03175 24.04646 2282 ft 167 kts 216°
2026-05-07 14:58 38.02270 24.03782 2054 ft 161 kts 215°
2026-05-07 14:59 38.01375 24.02928 1843 ft 160 kts 215°
2026-05-07 14:59 38.00485 24.02079 1636 ft 160 kts 214°
2026-05-07 14:59 37.99606 24.01239 1468 ft 153 kts 215°
2026-05-07 14:59 37.98769 24.00440 1235 ft 148 kts 214°
2026-05-07 15:00 37.97956 23.99655 1033 ft 145 kts 216°
2026-05-07 15:00 37.97146 23.98889 835 ft 145 kts 215°
2026-05-07 15:00 37.96349 23.98135 638 ft 138 kts 219°
2026-05-07 15:00 37.95598 23.97416 487 ft 137 kts 216°
2026-05-07 15:01 37.94831 23.96683 310 ft 137 kts 218°
2026-05-07 15:01 37.94143 23.96026 287 ft 105 kts 217°
2026-05-07 15:01 37.93677 23.95584 278 ft 62 kts 217°
2026-05-07 15:01 37.93508 23.95367 283 ft 17 kts 241°
2026-05-07 15:02 37.93467 23.95255 292 ft 10 kts 247°
2026-05-07 15:02 37.93444 23.95187 294 ft 5 kts 246°
2026-05-07 15:02 37.93430 23.95147 297 ft 5 kts 247°
2026-05-07 15:02 37.93417 23.95108 299 ft 6 kts 245°
2026-05-07 15:03 37.93384 23.95037 297 ft 12 kts 231°
2026-05-07 15:03 37.93319 23.94968 299 ft 12 kts 217°
2026-05-07 15:03 37.93244 23.94896 299 ft 15 kts 217°
2026-05-07 15:03 37.93146 23.94803 301 ft 20 kts 216°
2026-05-07 15:04 37.93030 23.94693 301 ft 21 kts 217°
2026-05-07 15:04 37.92917 23.94586 302 ft 20 kts 217°
2026-05-07 15:04 37.92830 23.94472 303 ft 17 kts 269°
2026-05-07 15:04 37.92888 23.94346 301 ft 16 kts 307°
2026-05-07 15:05 37.92932 23.94277 300 ft 6 kts 324°
2026-05-07 15:05 37.92972 23.94282 300 ft 6 kts 28°
2026-05-07 15:05 37.93005 23.94313 300 ft 5 kts 38°
2026-05-07 15:05 37.93015 23.94322 301 ft 2 kts 37°
2026-05-07 15:06 37.93022 23.94329 300 ft 1 kts 37°
2026-05-07 15:06 37.93023 23.94330 300 ft 0 kts 37°